STARLINK-31325, 59165

Orbit data source: Space-Track

STARLINK-31325, 59165 is a payload satellite owned by SpaceX/Seattle (US) in LEO that was launched on Mon, 04 Mar 2024 UTC via an FALCON 9 launch vehicle from the Air Force Eastern Test Range (AFETR). Payload-class satellites include a variety of spacecraft equipped with specific instruments for various scientific and technological missions. These include communications satellites like Starlink; space stations such as the ISS; scientific satellites like the Hubble; Earth observation satellites from companies like Planet Labs, Umbra, and HawkEye 360; GPS; miniature CubeSats for education and research; and military/defense satellites.

Loading next visibility...
Identifier
59165, 2024-044P
Orbit
LEO
Country
Flag of USUS
Related business
Manufacturer
SpaceX/Seattle
Mission
Operational Commercial Communications
Bus & Motor
STARLINK V2M, Unknown motor
Mass
730 kg wet, ~700 kg dry
Launch date (UTC)
2024-03-04 (2 years ago)
Launch vehicle
FALCON 9
Launch site
Air Force Eastern Test Range (AFETR)
Object type
Payload
Rocket body
Debris
Shape & HBR
Box + 2 Pan, 17.7 m
Radar Cross Section
33.884 m², Large (>1 m²)

Expand to show TLE details & history
Last TLE update: 3 days ago

TLE from 3 days ago
0 STARLINK-31325
1 59165U 24044P   26170.27855528 -.00000820  00000-0 -20278-4 0  9993
2 59165  43.0016 253.1917 0001334 273.5180  86.5519 15.27567814129100
Epoch: 2026-06-19T06:41Z
TLE epoch observation values (Epoch: 2026-06-19T06:41:07.176Z)
Latitude
-0.00001°
Longitude
-114.59803°
Altitude
482.806 km
Speed
7.626 km/s
True Right ascension
16h 52m 46s
True Declination
0° 00' 00"
Sunlit
Object was in full shadow at epoch
Visualization orbit readout
Latitude
Unknown
Longitude
Unknown
Altitude
Unknown
Speed
Unknown
Apparent Right ascension
Unknown
Apparent Declination
Unknown
Sunlit
N/A
Visualization observer readout
Local Sidereal Time
21:43:08
Azimuth
Unknown
Elevation
Unknown
Doppler factor
Unknown
Orbital elements
Apogee altitude
485.946 km
Perigee altitude
484.115 km
Semi-major axis
6,863.167 km
Eccentricity
0.00013
Inclination
43.0016°
RAAN
253.1917°
Arg. of periapsis
273.518°
True anomaly
86.56716°
Mean anomaly
86.5519°
Eccentric anomaly
86.55953°
Mean motion
3.8173 °/min
Orbital period
94.31 mins
BSTAR
-0.000020278
Loading maneuver chart data...
Computing Atmospheric mass density...
Loading historical data...
Loading historical data...
Loading historical data...
Loading historical data...
Loading historical data...
Loading historical data...
Loading historical data...

Documentation

Showing up to 5 results
|